Regional Weather Roundup
Issued by NWS Wakefield, VA

Home | Current Version | Previous Version | Graphics & Text | Print | Product List | Glossary On
Versions: 1 2 3 4 5 6 7 8 9 10 11 12 13 14 15 16 17 18 19 20 21 22 23 24 25 26 27 28 29 30 31 32 33 34 35 36 37 38 39 40 41 42 43 44 45 46 47 48 49 50
000
ASUS41 KAKQ 252214
RWRAKQ

REGIONAL WEATHER ROUNDUP
NATIONAL WEATHER SERVICE WAKEFIELD VA
600 PM EDT SAT APR 25 2015

Note: "fair" indicates few or no clouds below 12,000 feet with no
significant weather and/or obstructions to visibility. * = Denotes
station may not report precipitation (e.g., rain,snow,etc.),
thunder or fog.

VAZ042-051-052>054-056-252300-
NORTHERN VIRGINIA

CITY           SKY/WX    TMP DP  RH WIND       PRES   REMARKS
WASH NATIONAL  LGT RAIN  49  37  63 SW9       29.79F
DULLES         LGT RAIN  46  33  60 SW8       29.78S
FORT BELVOIR   LGT RAIN  46  39  75 SW5       29.80S
QUANTICO       LGT RAIN  46  40  79 W6        29.82S
FREDERICKSBRG* LGT RAIN  46  44  93 CALM      29.80S
STAFFORD*      RAIN      43  32  65 CALM      29.85S
WARRENTON      RAIN      43  42  95 S3        29.80S
CULPEPER*      RAIN      45  41  87 CALM      29.81S
MANASSAS*      CLOUDY    45  39  81 SW5       29.80F
LEESBURG*      LGT RAIN  48  32  53 S10       29.79R
WINCHESTER     DRIZZLE   46  30  53 S7        29.77R
FRONT ROYAL*   CLOUDY    43  37  81 S6        29.76S
LURAY*         RAIN      43  41  93 SW3       29.77F
$$

VAZ048-049-060>072-079>083-252300-
CENTRAL AND SOUTH CENTRAL VIRGINIA

CITY           SKY/WX    TMP DP  RH WIND       PRES   REMARKS
RICHMOND       LGT RAIN  46  43  87 NE6       29.78F FOG
CHESTERFIELD*  CLOUDY    45  34  65 NE3       29.80F
PETERSBURG*    DRIZZLE   47  46  94 E6        29.78F
HANOVER        LGT RAIN  44  42  93 CALM      29.81F FOG
TAPPAHANNOCK*  HVY RAIN  46  43  86 CALM      29.80S
QUINTON*       CLOUDY    45  44  97 CALM      29.79F
CHARLOTTSVILLE LGT RAIN  42  37  82 CALM      29.78F
GORDONSVILLE*  CLOUDY    42  39  88 SW3       29.79F
ORANGE*        RAIN      45  41  87 SW3       29.81S
LOUISA*        LGT RAIN  45  41  87 CALM      29.78F
BUMPASS*       CLOUDY    42  40  93 MISG      29.79F
FARMVILLE*     DRIZZLE   45  45 100 N5        29.77F
CREWE*         CLOUDY    45  44  96 NE3       29.76F
FORT PICKETT*  CLOUDY    45  44  98 NE6       29.76F
CHASE CITY*    CLOUDY    48  48 100 NE7       29.75S
CLARKSVILLE*   CLOUDY    46  46 100 CALM      29.74S
SOUTH HILL*    CLOUDY    46  45  97 CALM      29.81S
LAWRENCEVILLE* CLOUDY    46  45  99 N5        29.76S
EMPORIA*       DRIZZLE   45  45 100 N5        29.77F
$$

VAZ088>098-252300-
SOUTHEAST VIRGINIA

CITY           SKY/WX    TMP DP  RH WIND       PRES   REMARKS
NORFOLK        LGT RAIN  46  42  86 E8        29.79F FOG
VIRGINIA BEACH LGT RAIN  47  43  86 E7        29.79F FOG
NORFOLK NAVAL  LGT RAIN  49  44  83 E10       29.80F
WEST POINT*    CLOUDY    49  46  90 E8        29.80F
SALUDA*        CLOUDY    44  41  91 CALM      29.79F
NEWPORT NEWS   LGT RAIN  49  44  83 E9        29.78F
LANGLEY AFB    LGT RAIN  46  43  90 E10       29.78F FOG
FORT EUSTIS    LGT RAIN  47  47 100 E6        29.76F FOG
WILLIAMSBURG*  CLOUDY    50  48  93 E6        29.79F
HR EXEC AP*    CLOUDY    48  41  76 E7        29.79F
FRANKLIN*      LGT RAIN  45  44  95 E7        29.77F
WAKEFIELD      RAIN      45  43  93 E5        29.78F FOG
$$

VAZ020-022-025-037-045-252300-
WEST CENTRAL AND SOUTHWEST VIRGINIA

CITY           SKY/WX    TMP DP  RH WIND       PRES   REMARKS
STAUNTON*      RAIN      42  39  89 SW5       29.78S
WAYNESBORO*    CLOUDY    38  37  97 S8        29.75F
HOT SPRINGS VA SNOW      35  35 100 SE8       29.66F VSB<1/4
LYNCHBURG      CLOUDY    41  41 100 NE8       29.77F FOG
DANVILLE       CLOUDY    47  43  86 NE6       29.74F
SOUTH BOSTON*  CLOUDY    46  45  95 NE5       29.74F
MARTINSVILLE   CLOUDY    47  46  98 NE8       29.75F
ROANOKE        CLOUDY    42  40  92 SE7       29.75F FOG
BLACKSBURG     CLOUDY    40  39  96 E9        29.73F FOG
DUBLIN*        CLOUDY    46  44  91 NE7       29.70F
MARION*        CLOUDY    51  43  72 NE9       29.69S
HILLSVILLE*    CLOUDY    51  46  82 S5        29.68F
RICHLANDS*     FAIR      65  50  58 SW9G18    29.61F
WISE*          MOSUNNY   66  52  59 SW20G28   29.62S
ABINGDON*      CLOUDY    67  51  55 CALM      29.61F
$$

MDZ021>025-VAZ099-100-252300-
SOUTHERN MARYLAND AND THE DELMARVA PENINSULA

CITY           SKY/WX    TMP DP  RH WIND       PRES   REMARKS
PATUXENT RIVER LGT RAIN  46  43  89 SW5       29.79F FOG
BAY BRIDGE APT   N/A    N/A N/A N/A S8        29.79S
LEONARDTOWN    CLOUDY    45  39  81 CALM      29.81S
DOVER          CLOUDY    50  35  55 SW8       29.73F
GEORGETOWN     CLOUDY    51  29  42 SW6       29.79F
EASTON         LGT RAIN  52  36  54 SW8       29.82F
CAMBRIDGE      CLOUDY    52  37  58 SW5       29.79S
SALISBURY      CLOUDY    49  37  63 SW7       29.79F
OCEAN CITY     CLOUDY    47  38  71 VRB5      29.79F
WALLOPS ISLAND RAIN      45  43  93 CALM      29.80F FOG
ACCOMACK*      LGT RAIN  43  32  65 S3        29.80F
$$

NCZ012>017-030>032-252300-
NORTH CENTRAL AND EASTERN NORTH CAROLINA

CITY           SKY/WX    TMP DP  RH WIND       PRES   REMARKS
ROANOKE RAPIDS DRIZZLE   50  48  93 NE5       29.73F
RALEIGH        LGT RAIN  53  52  96 N5        29.72S VSB 1
ELIZABETH CITY LGT RAIN  53  39  59 E7        29.78F
AHOSKIE*       RAIN      48  47  95 CALM      29.75F
EDENTON*       DRIZZLE   55  53  94 E6        29.75F
CURRITUCK*     CLOUDY    51  39  63 NE7       29.79S
KILL DEVIL HLS RAIN      53  45  73 E3        29.78R
MANTEO         CLOUDY    54  46  75 E5        29.79R
CAPE HATTERAS  CLOUDY    56  53  90 W5        29.75F
TARBORO*       LGT RAIN  56  55  94 CALM      29.74S
GOLDSBORO      LGT RAIN  61  59  94 CALM      29.68F
WASHINGTON     CLOUDY    56  54  94 E6        29.73F
GREENVILLE     CLOUDY    55  55 100 SE5       29.75S
NEW BERN       CLOUDY    63  54  72 SE5       29.73F
WILMINGTON     CLOUDY    66  56  70 SE7       29.68F
$$

VAZ048-252300-
ELSEWHERE

CITY           SKY/WX    TMP DP  RH WIND       PRES   REMARKS
HARRISBURG PA  PTSUNNY   54  23  30 NW3       29.73F
BALTIMORE      CLOUDY    51  29  42 SW5       29.76F
ANNAPOLIS      CLOUDY    50  36  58 S8        29.77F
ANDREWS AFB    LGT RAIN  47  37  68 SW7       29.77S
PHILADELPHIA   PTSUNNY   57  24  28 SW13      29.74F
HENDERSON NC   CLOUDY    48  47  94 N5        29.74S FOG
GREENSBORO     CLOUDY    47  46  97 NE10      29.69F FOG
ROCKY MOUNT    LGT RAIN  56  54  93 CALM      29.73S FOG
$$

VAZ100-252300-
MARINE

STATION/POSITION TIME  TEMP    WIND        PRES    WAVE   SWELL
                       AIR SEA DIR/SP/G            HT/PER HT/PER
                 (UTC) (F)     (DEG/KT/KT) (MB)    (FT/S) (FT/S)
BRANDYWINE LGT   2100   48 53  190/  3/  4 1008.9F
CAPE MAY NJ      2100   48 54  220/  4/  4 1008.5F
LEWES DE         2100   50 51  280/  7/  9 1008.8F
15NM E FENWICK I 2150   45 47              1008.6F   1/11
OCEAN-CITY-INLET 2100   46 50  200/  7/ 11 1008.8F
WACHAPREAGUE VA  2100   45 56  190/  6/  7 1009.2F
THOMAS POINT MD  2200   49 52  170/ 11/ 12 1008.8F
GOOSES REEF MD   2200   49 53  240/  8/ 10   N/A     1
COVE POINT MD    2100   49     310/  4/  6 1009.6F
SOLOMONS ISLAND  2100      55                N/A
BISHOPS HEAD MD  2100   50 54  220/  8/  9 1008.6F
PINEY POINT MD   2100          200/  6/  7   N/A
CAMBRIDGE MD     2100   50 58  220/  5/  6 1008.8F
LEWISETTA VA     2100   47 56              1008.8F
RAPPAHANNOCK LGT 2100          150/  9/ 10 1009.9F
YORK RVR RNG VA  2100   47     110/ 11/ 12 1008.6F
YORKTOWN VA      2100   48 60  100/ 11/ 12 1008.8F
JAMESTOWN VA     2200   47 64  100/  4/  8 1007.4F
DOMINION TERM VA 2100   48     110/ 11/ 14 1009.1F
KIPTOPEKE VA     2100      62   90/  5/  8   N/A
CHES BAY BRIDGE  2100   47 53   70/ 11/ 13 1009.0F
CAPE HENRY VA    2100   46      80/  9/ 12 1008.2F
CHESAPEAKE LGHT  2100   47      70/ 12/ 13 1009.8F
WILLOUBY STN VA  2100   48      90/ 12/ 13 1009.6F
S CRANEY ISL VA  2100           80/  8/  9 1009.0F
CAPE HENRY BUOY  2128      52                N/A     2/ 5
1ST LANDING BUOY 2200                      1008.8F   1/ 3
OFFSHORE WE BUOY 2111      50                N/A     2/ 5   2/ 5
64NM E OF VA BCH 2150   52 58   50/ 14/ 16 1008.3F   3/ 7   2/ 7
DUCK PIER NC     2100   52 55   50/ 13/ 18 1007.3F
44056 DUCK FRF   2111      55                N/A     2/13   2/13
OREGON INLET NC  2100   56 59   70/  5/  9 1007.9F
HATTERAS NC      2100   62 65  260/ 11/ 14 1007.5F
DIAMOND SHLS NC  2150   64 70  290/ 10/ 14 1007.9R   3/ 9   2/ 9
CAPE LOOKOUT NC  2200   61     140/  4/  4 1006.4F
$$


USA.gov is the U.S. government's official web portal to all federal, state and local government web resources and services.